Barrow, AK

5:09 PM AKDT on June 19, 2018 (GMT -0800)
Wiley Post-Will Rogers Memorial

Weather History for PABR - January, 2017

Change the Weather History Date:

Tuesday, January 24, 2017

  Actual Average Record
Temperature  
Mean Temperature -14 °F -14 °F  
Max Temperature -10 °F -8 °F 31 °F (1991)
Min Temperature -19 °F -20 °F -50 °F (1989)
Degree Days  
Heating Degree Days 79 79  
Month to date heating degree days 1582 1876  
Since 1 July heating degree days 8541 10085  
Cooling Degree Days 0 0  
Month to date cooling degree days 0 0  
Year to date cooling degree days 0 0  
Moisture  
Dew Point -21 °F    
Average Humidity 72    
Maximum Humidity 75    
Minimum Humidity 70    
Precipitation  
Precipitation T in 0.00 in 0.10 in (1986)
Month to date precipitation 0.46 0.10  
Year to date precipitation 0.46 0.10  
Snow  
Snow T in 0.10 in 2.00 in (1921)
Month to date snowfall 4.4 2.0  
Since 1 July snowfall 21.7 25.8  
Snow Depth 6.00 in    
Sea Level Pressure  
Sea Level Pressure 29.61 in    
Wind  
Wind Speed 11 mph (ENE)    
Max Wind Speed 15 mph    
Max Gust Speed -    
Visibility 6 miles    
Events Fog , Snow    
T = Trace of Precipitation, MM = Missing Value Source: NWS Daily Summary

Daily Weather History Graph

Daily Weather History Graph

Search for Another Location

Airport or City:

Astronomy

Jan. 24, 2017 Rise Set
Actual Time 12:41 PM AKST 2:38 PM AKST
Civil Twilight 10:28 AM AKST 4:51 PM AKST
Nautical Twilight 8:56 AM AKST 6:22 PM AKST
Astronomical Twilight 7:39 AM AKST 7:40 PM AKST
Moon No Moon Rise No Moon Set
Length of Visible Light 6h 23m
Length of Day
1h 57m
Waning Crescent, 10% of the Moon is Illuminated
Jan 24
Waning Crescent
Jan 27
New
Feb 3
First Quarter
Feb 10
Full
Feb 18
Last Quarter

Hourly Weather History & Observations

Time (AKST) Temp. Windchill Dew Point Humidity Pressure Visibility Wind Dir Wind Speed Gust Speed Precip Events Conditions
12:53 AM -18.0 °F -38.6 °F -25.1 °F 70% 29.78 in 9.0 mi East 10.4 mph - N/A   Clear
1:53 AM -17.0 °F -39.3 °F -23.1 °F 74% 29.76 in 10.0 mi ENE 12.7 mph - N/A   Clear
2:53 AM -16.1 °F -36.2 °F -23.1 °F 71% 29.74 in 10.0 mi ENE 10.4 mph - N/A   Clear
3:53 AM -15.0 °F -33.7 °F -20.9 °F 75% 29.72 in 10.0 mi ENE 9.2 mph - N/A   Mostly Cloudy
4:53 AM -13.0 °F -32.4 °F -20.0 °F 71% 29.70 in 9.0 mi East 10.4 mph - 0.00 in Snow Light Snow
5:53 AM -11.0 °F -30.9 °F -18.0 °F 71% 29.68 in 10.0 mi ENE 11.5 mph - N/A   Overcast
6:53 AM -11.9 °F -33.0 °F -18.9 °F 71% 29.67 in 3.0 mi ENE 12.7 mph - N/A   Mostly Cloudy
7:53 AM -13.0 °F -32.4 °F -20.0 °F 71% 29.65 in 2.0 mi East 10.4 mph - 0.00 in Snow Light Snow
8:36 AM -13.0 °F -34.3 °F -20.0 °F 71% 29.63 in 2.0 mi ENE 12.7 mph - 0.00 in   Scattered Clouds
8:53 AM -13.0 °F -32.4 °F -20.0 °F 71% 29.64 in 2.0 mi East 10.4 mph - 0.00 in Snow Light Snow
9:53 AM -13.0 °F -33.4 °F -18.9 °F 75% 29.62 in 2.0 mi East 11.5 mph - 0.00 in   Scattered Clouds
10:00 AM -13.0 °F -33.4 °F -20.0 °F 71% 29.61 in 3.0 mi East 11.5 mph - N/A   Scattered Clouds
10:53 AM -11.9 °F -32.0 °F -18.9 °F 71% 29.61 in 5.0 mi East 11.5 mph - N/A   Scattered Clouds
11:00 AM -11.0 °F -30.9 °F -18.0 °F 71% 29.60 in 5.0 mi East 11.5 mph - N/A   Overcast
11:53 AM -11.9 °F -31.0 °F -18.9 °F 71% 29.60 in 6.0 mi East 10.4 mph - 0.00 in   Scattered Clouds
12:53 PM -11.0 °F -29.9 °F -18.0 °F 71% 29.60 in 4.0 mi East 10.4 mph - N/A   Overcast
1:53 PM -11.9 °F -31.0 °F -18.9 °F 71% 29.59 in 5.0 mi East 10.4 mph - N/A   Overcast
2:53 PM -14.1 °F -35.7 °F -20.9 °F 71% 29.57 in 5.0 mi ENE 12.7 mph - N/A   Mostly Cloudy
3:20 PM -14.1 °F -35.7 °F -20.9 °F 71% 29.55 in 6.0 mi ENE 12.7 mph - N/A   Mostly Cloudy
3:53 PM -15.0 °F -34.8 °F -22.0 °F 71% 29.56 in 7.0 mi ENE 10.4 mph - N/A   Mostly Cloudy
4:16 PM -15.0 °F -35.9 °F -22.0 °F 71% 29.54 in 9.0 mi ENE 11.5 mph - N/A   Partly Cloudy
4:53 PM -15.0 °F -34.8 °F -22.0 °F 71% 29.55 in 8.0 mi ENE 10.4 mph - N/A   Scattered Clouds
5:53 PM -16.1 °F -35.0 °F -23.1 °F 71% 29.55 in 9.0 mi ENE 9.2 mph - N/A   Clear
6:53 PM -15.0 °F -36.8 °F -22.0 °F 71% 29.53 in 7.0 mi ENE 12.7 mph - N/A   Partly Cloudy
7:53 PM -14.1 °F -34.7 °F -20.9 °F 71% 29.52 in 8.0 mi ENE 11.5 mph - N/A   Clear
8:53 PM -16.1 °F -33.7 °F -22.0 °F 74% 29.52 in 9.0 mi ENE 8.1 mph - N/A   Clear
9:53 PM -14.1 °F -34.7 °F -20.0 °F 75% 29.51 in 8.0 mi NE 11.5 mph - N/A   Partly Cloudy
10:53 PM -13.0 °F -33.4 °F -20.0 °F 71% 29.50 in 5.0 mi NE 11.5 mph - N/A   Haze
11:53 PM -14.1 °F -37.4 °F -20.9 °F 71% 29.48 in 6.0 mi NE 15.0 mph - N/A Fog Light Freezing Fog